Stations météo

réclame
Mon MeteoGroup
Vlissingen, Pays-Bas (6310): Température de l'air & dewpoint: 13.06.2018 16:00:00 - 19.06.2018 16:00:00 (CEST)Vlissingen, Pays-Bas (6310): Température de l'air 5cm: 13.06.2018 16:00:00 - 19.06.2018 16:00:00 (CEST)Vlissingen, Pays-Bas (6310): Vitesse du vent & gusts: 13.06.2018 16:00:00 - 19.06.2018 16:00:00 (CEST)Vlissingen, Pays-Bas (6310): Direction du vent: 13.06.2018 16:00:00 - 19.06.2018 16:00:00 (CEST)Vlissingen, Pays-Bas (6310): reduced air pressure: 13.06.2018 16:00:00 - 19.06.2018 16:00:00 (CEST)Vlissingen, Pays-Bas (6310): visibility: 13.06.2018 16:00:00 - 19.06.2018 16:00:00 (CEST)Vlissingen, Pays-Bas (6310): Quantités de précipitations: 13.06.2018 16:00:00 - 19.06.2018 16:00:00 (CEST)
Date & Time tt [°C] td [°C] tt 5cm [°C] ff [km/h] ff [knt] fx [km/h] fx [knt] dd ppp [hPa] vv [km] rr [mm]
19.06.2018 16:00:00 18,1 15,9 19,3 18 10 22 12 W 1024,4 21 0,0
19.06.2018 15:00:00 17,9 16,1 18,5 16 9 22 12 WSW 1024,6 10 0,0
19.06.2018 14:00:00 18,6 16,3 20,4 16 9 22 12 WSW 1024,5 10 0,0
19.06.2018 13:00:00 18,2 16,2 19,5 21 11 25 14 WSW 1024,4 10 0,0
19.06.2018 12:00:00 17,8 16,1 18,7 22 12 29 16 W 1024,1 10 0,0
19.06.2018 11:00:00 17,2 15,9 17,9 24 13 32 18 W 1023,9 10 0,0
19.06.2018 10:00:00 17,1 15,7 17,3 28 15 36 19 W 1023,7 10 0,0
19.06.2018 09:00:00 17,1 15,8 17,2 34 18 40 21 W 1023,2 10 0,0
19.06.2018 08:00:00 17,0 15,9 16,7 28 15 36 19 WSW 1022,7 6 0,0
19.06.2018 07:00:00 16,8 15,6 16,6 31 17 40 21 WSW 1022,3 8 0,0
19.06.2018 06:00:00 16,8 15,6 16,5 37 20 47 25 WSW 1021,8 10 0,0
19.06.2018 05:00:00 16,6 15,4 16,0 29 16 36 19 WSW 1021,3 11 0,0
19.06.2018 04:00:00 15,6 14,7 15,3 22 12 25 14 SW 1021,3 10 0,0
19.06.2018 03:00:00 15,5 14,6 15,0 25 14 36 19 WSW 1021,0 10 0,0
19.06.2018 02:00:00 14,9 13,8 14,4 29 16 36 19 WSW 1020,8 13 0,0
19.06.2018 01:00:00 15,1 13,0 14,5 28 15 36 19 WSW 1020,8 10 0,0
19.06.2018 00:00:00 15,4 12,2 14,7 28 15 32 18 SW 1021,1 10 0,0
18.06.2018 23:00:00 16,1 12,4 15,2 24 13 32 18 SW 1021,0 10 0,0
18.06.2018 22:00:00 16,8 13,2 16,0 24 13 32 18 SW 1020,9 10 0,0
18.06.2018 21:00:00 17,7 13,0 17,3 28 15 32 18 SW 1020,4 10 0,0
18.06.2018 20:00:00 17,6 13,1 17,5 28 15 36 19 SW 1020,3 10 0,0
18.06.2018 19:00:00 18,5 13,4 19,8 29 16 43 23 WSW 1020,3 10 0,0
18.06.2018 18:00:00 18,2 13,3 18,9 29 16 36 19 WSW 1020,3 10 0,0
18.06.2018 17:00:00 17,9 13,6 18,7 31 17 40 21 SW 1020,4 10 0,0
18.06.2018 16:00:00 17,2 13,8 17,3 35 19 43 23 WSW 1020,8 10 0,0
18.06.2018 15:00:00 17,3 13,9 17,1 34 18 43 23 SW 1020,5 10 0,0
18.06.2018 14:00:00 17,3 13,7 17,7 41 22 50 27 SW 1020,3 10 0,0
18.06.2018 13:00:00 16,4 14,2 16,5 29 16 40 21 W 1020,0 10 0,0
18.06.2018 12:00:00 17,2 14,4 17,0 34 18 47 25 W 1019,6 10 0,0
18.06.2018 11:00:00 16,0 14,9 16,1 39 21 50 27 W 1019,3 10 0,0
18.06.2018 10:00:00 17,2 15,2 17,0 28 15 40 21 SW 1019,2 10 0,0
18.06.2018 09:00:00 16,2 15,5 16,1 24 13 32 18 SSW 1018,7 6 0,0
18.06.2018 08:00:00 15,7 15,0 15,5 26 14 29 16 SSW 1018,6 10 0,0
18.06.2018 07:00:00 15,3 14,7 15,1 26 14 32 18 SSW 1018,4 6 0,0
18.06.2018 06:00:00 15,2 14,2 15,0 26 14 36 19 SSW 1018,5 6 0,0
18.06.2018 05:00:00 15,4 13,9 15,2 29 16 40 21 SSW 1018,2 10 0,0
18.06.2018 04:00:00 15,7 13,4 15,4 29 16 40 21 SW 1018,2 10 0,0
18.06.2018 03:00:00 16,0 12,9 15,7 28 15 36 19 SW 1018,5 10 0,0
18.06.2018 02:00:00 16,0 12,5 15,6 28 15 36 19 SW 1018,5 10 0,0
18.06.2018 01:00:00 15,9 12,5 15,5 34 18 40 21 SW 1019,0 10 0,0
18.06.2018 00:00:00 16,1 11,6 15,7 31 17 40 21 SW 1019,2 10 0,0
17.06.2018 23:00:00 16,0 11,1 15,7 31 17 43 23 SW 1019,2 10 0,0
17.06.2018 22:00:00 16,2 11,0 15,8 24 13 40 21 SW 1019,0 10 0,0
17.06.2018 21:00:00 16,7 11,4 16,3 35 19 43 23 WSW 1019,0 10 0,0
17.06.2018 20:00:00 16,9 11,2 16,6 29 16 36 19 SW 1018,8 10 0,0
17.06.2018 19:00:00 17,0 11,9 17,2 39 21 47 25 W 1018,3 10 0,0
17.06.2018 18:00:00 16,8 12,0 17,2 35 19 43 23 W 1018,3 10 0,0
17.06.2018 17:00:00 17,0 11,8 18,1 29 16 40 21 W 1018,4 10 0,0
17.06.2018 16:00:00 17,3 12,1 18,2 37 20 43 23 W 1018,3 10 0,0
17.06.2018 15:00:00 16,5 11,7 16,9 34 18 40 21 WSW 1018,0 10 0,1
17.06.2018 14:00:00 15,8 12,1 15,4 34 18 40 21 W 1017,7 10 0,0
17.06.2018 13:00:00 16,9 12,1 18,2 26 14 36 19 WSW 1017,6 10 0,0
17.06.2018 12:00:00 15,8 11,7 15,9 34 18 40 21 WSW 1017,3 10 0,0
17.06.2018 11:00:00 15,4 12,0 15,4 34 18 40 21 SW 1017,3 10 0,0
17.06.2018 10:00:00 15,1 11,9 14,8 31 17 36 19 SW 1017,1 10 0,0
17.06.2018 09:00:00 14,7 12,1 14,6 24 13 32 18 SW 1016,6 10 0,0
17.06.2018 08:00:00 14,6 12,0 14,7 29 16 36 19 SW 1016,0 10 0,0
17.06.2018 07:00:00 14,3 11,7 14,1 29 16 36 19 SW 1015,8 10 0,0
17.06.2018 06:00:00 14,2 11,8 13,9 31 17 36 19 SW 1015,5 10 0,0
17.06.2018 05:00:00 14,4 11,5 14,1 37 20 43 23 SW 1015,5 10 0,0
17.06.2018 04:00:00 14,8 11,5 14,4 35 19 43 23 SW 1015,3 10 0,0
17.06.2018 03:00:00 14,9 11,5 14,4 35 19 43 23 SW 1015,1 10 0,0
17.06.2018 02:00:00 14,8 11,4 14,0 29 16 36 19 SW 1015,2 10 0,0
17.06.2018 01:00:00 15,3 11,6 14,4 28 15 40 21 SW 1015,2 10 0,0
17.06.2018 00:00:00 15,8 11,5 15,0 22 12 29 16 SW 1015,2 10 0,0
16.06.2018 23:00:00 16,1 11,3 15,3 24 13 32 18 SW 1015,3 10 0,0
16.06.2018 22:00:00 16,2 11,2 15,5 28 15 40 21 SW 1015,3 10 0,0
16.06.2018 21:00:00 17,1 10,6 16,8 35 19 43 23 SW 1015,3 10 0,0
16.06.2018 20:00:00 17,1 11,5 16,8 34 18 43 23 W 1015,0 10 0,0
16.06.2018 19:00:00 17,3 11,0 18,4 41 22 50 27 W 1014,9 10 0,0
16.06.2018 18:00:00 17,5 11,5 17,8 37 20 47 25 W 1014,9 10 0,0
16.06.2018 17:00:00 17,6 11,2 18,7 37 20 47 25 W 1015,1 10 0,0
16.06.2018 16:00:00 17,7 9,7 19,6 31 17 43 23 W 1015,2 10 0,0
16.06.2018 15:00:00 17,4 10,4 18,0 34 18 43 23 W 1015,2 10 0,0
16.06.2018 14:00:00 17,5 12,0 18,6 26 14 40 21 W 1015,1 10 0,0
16.06.2018 13:00:00 17,4 12,6 18,9 22 12 29 16 W 1015,2 10 0,0
16.06.2018 12:00:00 18,0 13,5 18,8 16 9 22 12 SW 1015,4 10 0,0
16.06.2018 11:00:00 16,1 13,3 16,4 22 12 29 16 SW 1015,5 7 0,0
16.06.2018 10:00:00 14,6 12,5 15,0 21 11 29 16 SW 1015,6 9 0,0
16.06.2018 09:00:00 13,8 12,0 14,0 18 10 25 14 SSW 1015,4 9 0,0
16.06.2018 08:00:00 13,3 11,6 13,4 21 11 25 14 SW 1015,1 10 0,0
16.06.2018 07:00:00 13,0 10,9 12,7 22 12 25 14 SW 1015,2 17 0,0
16.06.2018 06:00:00 13,4 10,5 12,8 22 12 25 14 SW 1015,3 22 0,0
16.06.2018 05:00:00 13,7 9,5 13,1 22 12 29 16 SW 1015,5 28 0,0
16.06.2018 04:00:00 14,9 9,7 14,2 18 10 22 12 SSW 1015,2 24 0,0
16.06.2018 03:00:00 14,7 10,0 13,9 18 10 18 10 SW 1015,6 29 0,0
16.06.2018 02:00:00 15,4 11,0 14,7 18 10 25 14 SW 1016,1 25 0,0
16.06.2018 01:00:00 16,3 12,9 15,4 14 8 14 8 WSW 1016,1 22 0,0
16.06.2018 00:00:00 16,3 13,9 15,1 8 4 11 6 SW 1016,3 10 0,0
15.06.2018 23:00:00 16,5 12,9 15,5 9 5 11 6 W 1016,4 10 0,0
15.06.2018 22:00:00 16,4 14,0 15,5 5 3 11 6 W 1016,5 10 0,0
15.06.2018 21:00:00 16,7 14,1 16,3 11 6 14 8 W 1016,3 10 0,0
15.06.2018 20:00:00 17,5 14,2 18,3 15 8 22 12 W 1016,5 10 0,0
15.06.2018 19:00:00 18,3 12,9 18,7 18 10 25 14 W 1016,5 10 0,0
15.06.2018 18:00:00 19,5 12,8 21,2 21 11 32 18 W 1016,4 10 0,0
15.06.2018 17:00:00 20,3 14,6 22,9 9 5 18 10 W 1016,2 10 0,0
15.06.2018 16:00:00 21,3 14,3 24,2 18 10 25 14 W 1016,4 10 0,0
15.06.2018 15:00:00 20,8 14,0 23,4 15 8 22 12 WNW 1016,7 10 0,0
15.06.2018 14:00:00 21,0 15,3 25,2 8 4 11 6 WSW 1016,5 10 0,0
15.06.2018 13:00:00 18,8 15,1 20,8 5 3 7 4 SW 1016,8 10 0,0
15.06.2018 12:00:00 19,7 15,3 23,0 4 2 7 4 - 1016,8 10 0,0
15.06.2018 11:00:00 18,2 14,2 21,9 4 2 7 4 - 1016,8 9 0,0
15.06.2018 10:00:00 16,6 13,7 20,1 5 3 7 4 SSE 1016,8 9 0,0
15.06.2018 09:00:00 16,0 13,8 17,8 5 3 7 4 SSW 1016,4 8 0,0
15.06.2018 08:00:00 15,6 13,9 15,5 11 6 14 8 SW 1016,2 9 0,0
15.06.2018 07:00:00 13,9 12,6 13,7 13 7 14 8 SSW 1016,0 10 0,0
15.06.2018 06:00:00 13,9 12,5 13,5 11 6 14 8 S 1015,9 10 0,0
15.06.2018 05:00:00 14,2 12,6 13,5 11 6 14 8 S 1015,8 10 0,0
15.06.2018 04:00:00 14,1 12,6 13,1 9 5 11 6 SSW 1015,6 10 0,0
15.06.2018 03:00:00 14,4 12,6 13,2 11 6 18 10 SW 1015,6 10 0,0
15.06.2018 02:00:00 15,0 12,7 14,3 18 10 25 14 SW 1015,6 10 0,0
15.06.2018 01:00:00 15,6 13,0 14,9 21 11 25 14 WSW 1015,9 10 0,0
15.06.2018 00:00:00 16,0 13,7 15,0 13 7 18 10 SW 1015,8 10 0,0
14.06.2018 23:00:00 16,3 13,9 15,5 13 7 18 10 SW 1015,5 10 0,0
14.06.2018 22:00:00 16,6 14,5 15,7 15 8 22 12 SW 1015,0 10 0,0
14.06.2018 21:00:00 17,3 15,1 16,5 22 12 25 14 WSW 1014,5 10 0,0
14.06.2018 20:00:00 16,8 15,4 16,6 28 15 36 19 WSW 1014,0 10 0,0
14.06.2018 19:00:00 16,5 15,1 16,0 22 12 29 16 SW 1013,8 10 0,0
14.06.2018 18:00:00 16,0 15,3 15,9 21 11 29 16 SW 1013,8 5 0,1
14.06.2018 17:00:00 15,8 14,7 16,1 34 18 43 23 WSW 1013,7 5 0,0
14.06.2018 16:00:00 17,0 13,5 17,1 29 16 40 21 SW 1013,2 10 0,0
14.06.2018 15:00:00 17,8 12,4 17,7 37 20 50 27 SW 1013,1 10 0,0
14.06.2018 14:00:00 18,2 12,9 18,5 39 21 50 27 SSW 1013,1 10 0,0
14.06.2018 13:00:00 18,0 13,1 17,9 42 23 54 29 SSW 1012,6 10 0,0
14.06.2018 12:00:00 18,2 13,2 18,0 37 20 47 25 SSW 1012,9 10 0,0
14.06.2018 11:00:00 18,2 11,8 18,1 39 21 50 27 SSW 1013,0 10 0,0
14.06.2018 10:00:00 18,2 12,5 19,1 31 17 43 23 SSW 1013,1 10 0,0
14.06.2018 09:00:00 16,3 12,2 16,6 28 15 36 19 S 1013,5 10 0,0
14.06.2018 08:00:00 15,0 11,0 15,6 28 15 32 18 S 1013,7 10 0,0
14.06.2018 07:00:00 14,0 10,1 13,7 26 14 32 18 S 1014,0 10 0,0
14.06.2018 06:00:00 13,9 10,3 13,1 24 13 32 18 SSW 1014,4 10 0,0
14.06.2018 05:00:00 14,6 10,8 13,8 21 11 25 14 S 1014,9 10 0,0
14.06.2018 04:00:00 14,9 11,0 13,7 15 8 18 10 SSW 1015,5 10 0,0
14.06.2018 03:00:00 15,2 12,6 14,1 13 7 14 8 SSW 1016,1 10 0,0
14.06.2018 02:00:00 15,0 11,7 13,8 13 7 14 8 SW 1016,6 10 0,0
14.06.2018 01:00:00 15,0 10,7 13,7 11 6 14 8 SSW 1016,9 10 0,0
14.06.2018 00:00:00 15,9 10,6 14,5 11 6 14 8 S 1017,3 10 0,0
13.06.2018 23:00:00 16,2 10,4 14,7 11 6 11 6 S 1017,4 10 0,0
13.06.2018 22:00:00 16,1 10,0 13,7 5 3 7 4 SSW 1017,4 10 0,0
13.06.2018 21:00:00 16,2 9,3 15,4 5 3 11 6 W 1017,6 10 0,0
13.06.2018 20:00:00 16,2 8,5 16,7 11 6 14 8 WSW 1017,5 10 0,0
13.06.2018 19:00:00 16,5 7,7 17,9 16 9 22 12 W 1018,0 10 0,0
13.06.2018 18:00:00 17,3 8,6 18,8 18 10 25 14 W 1017,7 10 0,0
13.06.2018 17:00:00 17,7 9,4 20,6 11 6 22 12 NW 1018,3 10 0,0
13.06.2018 16:00:00 18,0 9,3 21,1 13 7 25 14 NNW 1018,5 10 0,0

tt = Température de l'air
td = dewpoint
tt 5cm = Température de l'air 5cm
ff = Vitesse du vent
fx = gusts
dd = Direction du vent
ppp = reduced air pressure
vv = visibility
rr = Quantités de précipitations

stations d'obs. à proximité